Weather History for Redmond, OR

Change the Weather History Date:

Tuesday, September 4, 2012

  Actual Average Record
Temperature  
Mean Temperature 61 °F 61 °F  
Max Temperature 83 °F 80 °F 101 °F (1998)
Min Temperature 38 °F 41 °F 31 °F (1969)
Degree Days  
Heating Degree Days 4 5  
Month to date heating degree days 26 20  
Since 1 July heating degree days 126 169  
Cooling Degree Days 0 1  
Month to date cooling degree days 0 4  
Year to date cooling degree days 201 210  
Growing Degree Days 12 (Base 50)    
Moisture  
Dew Point 32 °F    
Average Humidity 38    
Maximum Humidity 60    
Minimum Humidity 15    
Precipitation  
Precipitation 0.00 in 0.01 in 0.44 in (1952)
Month to date precipitation 0.00 0.05  
Year to date precipitation 7.65 5.78  
Sea Level Pressure  
Sea Level Pressure 30.10 in    
Wind  
Wind Speed 5 mph (WNW)    
Max Wind Speed 14 mph    
Max Gust Speed 18 mph    
Visibility 10 miles    
Events      
T = Trace of Precipitation, MM = Missing Value Source: NWS Daily Summary

Daily Weather History Graph

Daily Weather History Graph

Search for Another Location

Airport:

Trip Planner

Search our weather history database for the weather conditions in past years. The results will help you decide how hot, cold, wet, or windy it might be!

Date:

Astronomy

Sep. 04, 2012 Rise Set
Actual Time 6:31 AM PDT 7:34 PM PDT
Civil Twilight 6:02 AM PDT 8:03 PM PDT
Nautical Twilight 5:26 AM PDT 8:39 PM PDT
Astronomical Twilight 4:49 AM PDT 9:16 PM PDT
Moon 9:17 PM PDT (9/4) 10:55 AM PDT (9/4)
Length of Visible Light 14h 01m
Length of Day
13h 02m
Waning Gibbous, 83% of the Moon is Illuminated
Sep 4
Waning Gibbous
Sep 8
Last Quarter
Sep 15
New
Sep 22
First Quarter
Sep 29
Full

Hourly Weather History & Observations

Time (PDT) Temp. Windchill Dew Point Humidity Pressure Visibility Wind Dir Wind Speed Gust Speed Precip Events Conditions
12:56 AM 43.0 °F 41.3 °F 25.0 °F 49% 30.09 in 10.0 mi WSW 3.5 mph - N/A   Clear
1:56 AM 45.0 °F 42.6 °F 26.1 °F 48% 30.09 in 10.0 mi South 4.6 mph - N/A   Clear
2:56 AM 45.0 °F - 28.9 °F 53% 30.09 in 10.0 mi Calm Calm - N/A   Clear
3:56 AM 45.0 °F 43.5 °F 30.0 °F 56% 30.10 in 10.0 mi South 3.5 mph - N/A   Clear
4:56 AM 44.1 °F 42.5 °F 28.9 °F 55% 30.11 in 10.0 mi SSE 3.5 mph - N/A   Clear
5:56 AM 42.1 °F 40.2 °F 28.0 °F 58% 30.13 in 10.0 mi East 3.5 mph - N/A   Clear
6:56 AM 41.0 °F 39.0 °F 28.0 °F 60% 30.15 in 10.0 mi South 3.5 mph - N/A   Clear
7:56 AM 51.1 °F - 33.1 °F 50% 30.16 in 10.0 mi South 3.5 mph - N/A   Clear
8:56 AM 57.9 °F - 34.0 °F 41% 30.15 in 10.0 mi Calm Calm - N/A   Clear
9:56 AM 64.9 °F - 32.0 °F 29% 30.15 in 10.0 mi Calm Calm - N/A   Clear
10:56 AM 68.0 °F - 33.1 °F 27% 30.15 in 10.0 mi Variable 4.6 mph - N/A   Clear
11:56 AM 73.0 °F - 33.1 °F 23% 30.14 in 10.0 mi Calm Calm - N/A   Clear
12:56 PM 75.9 °F - 33.1 °F 21% 30.13 in 10.0 mi NW 6.9 mph - N/A   Clear
1:56 PM 80.1 °F - 30.9 °F 17% 30.10 in 10.0 mi North 9.2 mph - N/A   Clear
2:56 PM 81.0 °F - 34.0 °F 18% 30.09 in 10.0 mi North 11.5 mph - N/A   Clear
3:56 PM 82.0 °F - 35.1 °F 18% 30.06 in 10.0 mi NNW 12.7 mph 18.4 mph N/A   Clear
4:56 PM 82.0 °F - 33.1 °F 17% 30.05 in 10.0 mi NNW 10.4 mph - N/A   Clear
5:56 PM 81.0 °F - 28.9 °F 15% 30.05 in 10.0 mi NNW 8.1 mph - N/A   Clear
6:56 PM 78.1 °F - 32.0 °F 19% 30.04 in 10.0 mi NNW 10.4 mph - N/A   Clear
7:56 PM 73.0 °F - 37.0 °F 27% 30.04 in 10.0 mi NNW 8.1 mph - N/A   Clear
8:56 PM 69.1 °F - 36.0 °F 30% 30.05 in 10.0 mi NW 6.9 mph - N/A   Clear
9:56 PM 57.9 °F - 34.0 °F 41% 30.07 in 10.0 mi Calm Calm - N/A   Clear
10:56 PM 64.0 °F - 37.0 °F 37% 30.06 in 10.0 mi NW 6.9 mph - N/A   Clear
11:56 PM 57.9 °F - 35.1 °F 42% 30.07 in 10.0 mi WSW 5.8 mph - N/A   Clear